Delta Virtual Airport Information Service

Paris Charles de Gaulle Airport

ICAO: LFPG Country: France
Latitude: 49.0125 Longitude: 2.55575
Latest Arrival : DAL82 (KATL-LFPG) Latest Departure : AZA339 (LFPG-LIML)


WX CaptureLIVE
Data provided by noaa.gov | Fetched at 23:38:18

METAR : LFPG 120300Z 21009KT CAVOK 09/06 Q1013 NOSIG

TAF : LFPG 112300Z 1200/1306 23010KT CAVOK TX16/1215Z TN08/1205Z PROB40 TEMPO 1205/1208 BKN008 PROB30 TEMPO 1205/1207 4000 BR BKN004 BECMG 1213/1215 17010KT PROB40 TEMPO 1213/1217 4000 SHRA SCT040TCU BECMG 1300/1302 BKN012 PROB40 TEMPO 1303/1306 4000 RA


Runway Data for LFPG
Data provided by openaviationdata.com

Runway ID Mag Var Hdg Length Elevation Surface ILS Freq ILS Id ILS Slope
08L -2 87° 13944 ft 392 ft Macadam 108.7 GLE 3
08R -2 87° 8832 ft 392 ft Concrete 108.55 DSE 3
09L -2 87° 8840 ft 392 ft Tarmac 109.35 PNE 3
09R -2 87° 13780 ft 392 ft Macadam 110.1 CGE 3
26L -2 267° 8832 ft 392 ft Concrete 108.35 DSU 3
26R -2 267° 13944 ft 392 ft Macadam 109.1 GAU 3
27L -2 267° 13780 ft 392 ft Macadam 110.7 CGW 3
27R -2 267° 8840 ft 392 ft Tarmac 110.35 PNW 3

Paris Charles de Gaulle Airport, France
Use only for reference purposes



Not for navigational purposes.